STARLINK-34134

Satellite information

Favourite Embed

Satellite Type and Status

PAYLOADIN ORBIT

Key statistics

Satellite STARLINK-34134 at a glance.

Uptime

217

Days in orbit

Revolutions

≈ 15.3

Per day

Orbit

LEO

Low Earth Orbit

Inclination

43.0

Latest

Satellite identification and parameters

Extended collection of information and parameters for STARLINK-34134.

Object identification

Identified? True

Debris? False

Object name: STARLINK-34134

International designator: 2025-095K

Object number (NORAD): 63899

Object ID (CCSDS): 63899

Country: UNITED STATES OF AMERICA (US)

Current information (Y/N): Y

RCS size: LARGE

Orbital parameters

Period: 94.265 minutes

Inclination: 42.9974 deg

SMA: 6861.092 km

Apoapsis: 483.61 km

Periapsis: 482.303 km

RAAN: 311.9982 deg

Eccentricy: 0.0000952

Argument of periapsis: 319.6833 deg

Mean anomaly: 40.3948 deg

Mean motion: 15.27611571 rev/day

Mean motion (dot): 0.00033216 rev/day2

B* drag term: 0.00121 1/REarth

Two-line elements (TLE)

Creation date: Dec. 12, 2025, 7:26 a.m.

Reference frame: TEME

Reference center: EARTH

Epoch: Dec. 11, 2025, 10:08 p.m. UTC

TLE line 0: 0 STARLINK-34134

TLE line 1: 1 63899U 25095K 25345.92238642 .00033216 00000-0 12100-2 0 9992

TLE line 2: 2 63899 42.9974 311.9982 0000952 319.6833 40.3948 15.27611571 34364

Live tracking on map

Real-time ground track for satellite STARLINK-34134.

In-orbit conjunctions

There are no conjunctions computed for STARLINK-34134, at the moment. Check back to stay up to date, as we update our databases every day.

Go to all conjunctions

Associated space launch

A batch of 28 satellites for the Starlink mega-constellation - SpaceX's project for space-based Internet communication system.

STARLINK-34134 was lifted into orbit during the mission ‘Falcon 9 Block 5 | Starlink Group 6-91’, on board a Falcon 9 space rocket.

The launch took place on May 10, 2025, 6:28 a.m. from Space Launch Complex 40.

For more information about the launch, click the button.

Launch to space Falcon 9 Block 5 | Starlink Group 6-91
Falcon 9 Block 5 | Starlink Group 6-91

Agency: SpaceX

Status: Launch Successful

Launch date: May 10, 2025, 6:28 a.m. UTC

Rocket: Falcon 9

Launch pad: Space Launch Complex 40

Location: Cape Canaveral SFS, FL, USA

...

Latest news about this satellite

News about space launch
Live coverage: SpaceX to launch 28 Starlink satellites on Falcon 9 rocket from Cape Canaveral

The Starlink 6-91 mission includes the 900th Starlink V2 Mini satellite launched in 2025. Liftoff from pad 40 at Cape Canaveral Space Force Station is targeted for Saturday, May 10 at 2:28 am EDT (0628 UTC).

News about space launch
Launch Roundup: SpaceX to launch 250th mission from SLC-40

SpaceX is on course to launch its 250th mission from SLC-40 in Florida this week.… The post Launch Roundup: SpaceX to launch 250th mission from SLC-40 appeared first on NASASpaceFlight.com.


Newsletter sign-up

Weekly statistics, charts and insights to help you stay on top of the space industry.